Flag for U.S.A. Weather past 2 weeks in Warminster Township, Pennsylvania, U.S.A.

Now
60 °F

Sunny.


Feels Like: 60 °F
Forecast: 46 / 69 °F
Wind: 6 mph from Northeast

Location: Doylestown Airport

Current Time: Sep 23, 2014 at 11:31:29 AM

Latest Report: Sep 23, 2014 at 10:54 AM


Visibility: 10 mi

Pressure: 30.34 "Hg

Humidity: 53%

Dew point: 43 °F

Location of Warminster TownshipLocation

Historic Weather in Warminster Township — Graph

°F

Warminster Township temperature yesterday

Maximum temperature yesterday: 68 °F (at 1:54 PM)
Minimum temperature yesterday: 53 °F (at 10:54 PM)
Average temperature yesterday: 62 °F

Past Weeks' High & Low Weather Summary

 TemperatureHumidityPressure
High83 °F (Sep 11, 4:54 PM)100% (Sep 13, 2:01 PM)30.35 "Hg (Sep 13, 2:01 PM)
Low43 °F (Sep 23, 3:54 AM)38% (Sep 17, 2:54 PM)29.62 "Hg (Sep 21, 5:54 PM)
Average62 °F73%30.08 "Hg
* Reported Sep 8 9:54 AM — Sep 23 9:54 AM, Warminster Township, Weather by CustomWeather, © 2014

Note: Actual official high and low records may vary slightly from our data, if they occured in-between our weather recording intervals... More about our weather records

Advertising

Warminster Township weather history for previous 24 hours

 ConditionsComfort  
Time TempWeatherWind HumidityBarometerVisibility
9:54 AM
Sep 23
57 °FSunny.7 mph60%30.34 "Hg10 mi
8:54 AM53 °FSunny.No wind66%30.32 "Hg10 mi
7:54 AM47 °FSunny.5 mph77%30.30 "Hg10 mi
6:54 AM43 °FClear.3 mph86%30.29 "Hg10 mi
5:54 AM45 °FClear.No wind82%30.26 "Hg10 mi
4:54 AM45 °FClear.No wind82%30.24 "Hg10 mi
3:54 AM43 °FClear.No wind89%30.22 "Hg10 mi
2:54 AM45 °FClear.No wind82%30.22 "Hg10 mi
1:54 AM47 °FClear.No wind77%30.22 "Hg10 mi
12:54 AM50 °FClear.3 mph66%30.21 "Hg10 mi
11:54 PM
Sep 22
53 °FClear.7 mph59%30.20 "Hg10 mi
10:54 PM53 °FClear.6 mph64%30.18 "Hg10 mi
9:54 PM55 °FPassing clouds.6 mph62%30.16 "Hg10 mi
8:54 PM57 °FPassing clouds.3 mph60%30.12 "Hg10 mi
7:54 PM59 °FSunny.3 mph54%30.08 "Hg10 mi
6:54 PM61 °FSunny.7 mph50%30.04 "Hg10 mi
5:54 PM64 °FSunny.14 mph45%30.02 "Hg10 mi
4:54 PM67 °FSunny.13 mph41%29.98 "Hg10 mi
3:54 PM68 °FScattered clouds.12 mph44%29.96 "Hg10 mi
2:54 PM68 °FOvercast.13 mph47%29.96 "Hg10 mi
1:54 PM68 °FOvercast.10 mph47%29.95 "Hg10 mi
12:54 PM67 °FPartly sunny.9 mph51%29.94 "Hg10 mi
11:54 AM66 °FOvercast.7 mph52%29.93 "Hg10 mi
Weather by CustomWeather, © 2014

See weather overviewHow to use our weather pages